This is the latest recevied weather packets stored in our database for station/object W0WC. If no packets are shown the sender has not sent any weather packets the latest 10 day(s).
| Time | Temp. | Humidity | Pressure | Rain* | Wind** | Luminosity | Snow |
|---|---|---|---|---|---|---|---|
| 1788441486 | 27.78° C | 65% | 1016.5 hPa | 0 mm | - | 55 W/m² | - |
| 1788441186 | 27.78° C | 65% | 1016.4 hPa | 0 mm | - | 109 W/m² | - |
| 1788440880 | 27.22° C | 66% | 1016.4 hPa | 0 mm | - | 98 W/m² | - |
| 1788440575 | 27.22° C | 67% | 1016.7 hPa | 0 mm | - | 86 W/m² | - |
| 1788440273 | 27.22° C | 67% | 1016.6 hPa | 0 mm | - | 77 W/m² | - |
| 1788439969 | 26.67° C | 67% | 1016.7 hPa | 0 mm | - | 68 W/m² | - |
| 1788439668 | 26.67° C | 67% | 1016.3 hPa | 0 mm | - | 59 W/m² | - |
| 1788439364 | 26.67° C | 67% | 1016.4 hPa | 0 mm | - | 50 W/m² | - |
| 1788439062 | 26.67° C | 68% | 1016.4 hPa | 0 mm | - | 43 W/m² | - |
| 1788438762 | 26.67° C | 68% | 1016.4 hPa | 0 mm | - | 36 W/m² | - |
| 1788438461 | 26.67° C | 68% | 1016.4 hPa | 0 mm | - | 31 W/m² | - |
| 1788438156 | 26.11° C | 68% | 1016.2 hPa | 0 mm | - | 26 W/m² | - |
| 1788437854 | 26.11° C | 69% | 1016.1 hPa | 0 mm | - | 21 W/m² | - |
| 1788437550 | 26.11° C | 69% | 1016.2 hPa | 0 mm | - | 17 W/m² | - |
| 1788437250 | 26.11° C | 69% | 1016.2 hPa | 0 mm | - | 13 W/m² | - |
| 1788436944 | 26.11° C | 69% | 1016.1 hPa | 0 mm | - | 10 W/m² | - |
| 1788436643 | 26.11° C | 68% | 1016.1 hPa | 0 mm | - | 7 W/m² | - |
| 1788436339 | 26.67° C | 68% | 1016 hPa | 0 mm | - | 4 W/m² | - |
| 1788436033 | 26.67° C | 68% | 1016 hPa | 0 mm | - | 2 W/m² | - |
| 1788435729 | 26.67° C | 68% | 1015.9 hPa | 0 mm | - | 1 W/m² | - |
| 1788435428 | 26.67° C | 67% | 1016 hPa | 0 mm | - | 0 W/m² | - |
| 1788435125 | 26.67° C | 67% | 1016.1 hPa | 0 mm | - | 0 W/m² | - |
| 1788434821 | 26.67° C | 66% | 1016.2 hPa | 0 mm | - | 0 W/m² | - |
| 1788434516 | 26.67° C | 66% | 1015.9 hPa | 0 mm | - | 0 W/m² | - |
| 1788434214 | 26.67° C | 66% | 1016 hPa | 0 mm | - | 0 W/m² | - |
* Rain latest hour (hover to see other rain measurements)
** Current wind speed in m/s (hover to see current wind gust speed)